Flag for Poland Weather past 2 weeks in Lódz, Poland

Now
71 °F

Fog.


Feels Like: 67 °F
Forecast: 66 / 87 °F
Wind: 2 mph from East

Location: Lodz

Current Time: Aug 2, 2014 at 11:37:40 AM

Latest Report: Aug 2, 2014 at 10:00 AM


Visibility: 3 mi

Pressure: 29.94 "Hg

Humidity: 91%

Dew point: 68 °F

Location of LódzLocation

Historic Weather in Lódz — Graph

°F

Lódz temperature yesterday

Maximum temperature yesterday: 70 °F (at 12:00 AM)
Minimum temperature yesterday: 63 °F (at 12:00 PM)
Average temperature yesterday: 66 °F

Past Weeks' High & Low Weather Summary

 TemperatureHumidityPressure
High88 °F (Jul 20, 4:00 PM)99% (Aug 2, 5:00 AM)30.12 "Hg (Aug 2, 5:00 AM)
Low59 °F (Jul 19, 5:00 AM)33% (Jul 19, 4:00 PM)29.72 "Hg (Jul 30, 6:00 PM)
Average72 °F72%29.92 "Hg
* Reported Jul 18 10:00 AM — Aug 2 10:00 AM, Lódz, Weather by CustomWeather, © 2014

Note: Actual official high and low records may vary slightly from our data, if they occured in-between our weather recording intervals... More about our weather records

Advertising

Lódz weather history for previous 24 hours

 ConditionsComfort  
Time TempWeatherWind HumidityBarometerVisibility
10:00 AM
Aug 2
71 °FFog.2 mph91%29.94 "Hg3 mi
9:00 AM68 °FFog.3 mph95%29.94 "Hg2 mi
8:00 AM67 °FFog.3 mph98%29.94 "Hg1 mi
7:00 AM66 °FFog.3 mph99%29.94 "Hg1 mi
6:00 AM65 °FFog.2 mph99%29.94 "Hg1 mi
5:00 AM64 °FFog.2 mph99%29.94 "Hg1 mi
4:00 AM64 °FFog.2 mph98%29.94 "Hg2 mi
3:00 AM63 °FFog.1 mph97%29.94 "Hg3 mi
2:00 AM64 °FOvercast.2 mph96%29.95 "Hg6 mi
1:00 AM65 °FOvercast.3 mph93%29.96 "Hg6 mi
12:00 AM64 °FOvercast.2 mph92%29.96 "Hg9 mi
11:00 PM
Aug 1
64 °FOvercast.1 mph90%29.96 "Hg11 mi
10:00 PM64 °FOvercast.2 mph89%29.96 "Hg9 mi
9:00 PM66 °FOvercast.3 mph86%29.97 "Hg11 mi
8:00 PM67 °FOvercast.3 mph84%29.96 "Hg11 mi
7:00 PM68 °FOvercast.3 mph81%29.96 "Hg8 mi
6:00 PM68 °FOvercast.5 mph81%29.96 "Hg9 mi
5:00 PM67 °FOvercast.5 mph83%29.96 "Hg11 mi
4:00 PM67 °FOvercast.5 mph81%29.96 "Hg14 mi
3:00 PM67 °FOvercast.7 mph78%29.96 "Hg12 mi
2:00 PM66 °FOvercast.5 mph83%29.97 "Hg11 mi
1:00 PM63 °FSprinkles. Low clouds.5 mph87%29.97 "Hg9 mi
12:00 PM63 °FRain showers. Low clouds.6 mph92%29.98 "Hg5 mi
11:00 AM63 °FRain showers. Overcast.10 mph93%29.98 "Hg2 mi
Weather by CustomWeather, © 2014

See weather overviewHow to use our weather pages